Location: Newark
(54.6833°N, 25.2833°E)
Time: 03:16:32
(UTC+00:00)

Altair - Pass Details

Date: 17 November 2019
Orbit: 1502 x 1682 km, 47.2° (Epoch: 05 December)

Event Time Altitude Azimuth Distance (km) Brightness Sun altitude
Rises 09:03:01 0° 283° (WNW) 4,682 9.8 15.2°
Reaches altitude 10° 09:07:23 10° 265° (W) 3,722 9.5 15.4°
Maximum altitude 09:12:50 17° 229° (SW) 3,218 9.7 15.6°
Drops below altitude 10° 09:18:23 10° 193° (SSW) 3,794 11.0 15.7°
Sets 09:22:57 0° 175° (S) 4,811 12.0 15.8°
